Regional Weather Roundup
Issued by NWS

Home | Current Version | Previous Version | Graphics & Text | Print | Product List | Glossary Off
Versions: 1 2 3 4 5 6 7 8 9 10 11 12 13 14 15 16 17 18 19 20 21 22 23 24 25 26 27 28 29 30 31 32 33 34 35 36 37 38 39 40 41 42 43 44 45 46 47 48 49 50

000
ASUS45 KBOU 060207
RWRCO

WEATHER ROUNDUP FOR COLORADO
NATIONAL WEATHER SERVICE DENVER/BOULDER CO
700 PM MST THU MAR 05 2015

NOTE: "FAIR" INDICATES FEW OR NO CLOUDS BELOW 12000 FEET WITH NO
SIGNIFICANT WEATHER AND/OR OBSTRUCTIONS TO VISIBILITY.

COZ001>005-013-030-031-060300-
...NORTHWEST COLORADO...

CITY           SKY/WX    TMP DP  RH WIND       PRES   REMARKS
CRAIG          CLEAR     28  14  55 SE5       30.37R WCI  23
HAYDEN         CLEAR     25   9  50 SE10      30.36R WCI  15
MEEKER         CLEAR     35  18  49 SW6       30.35R WCI  30
MOUNT WERNER   NOT AVBL
STEAMBOAT SPGS CLEAR     24   9  53 CALM      30.37R
WALDEN         PTCLDY    21   5  49 SW8       30.31R WCI  12
$$

COZ006>008-011-060300-
...WEST CENTRAL VALLEYS...

CITY           SKY/WX    TMP DP  RH WIND       PRES   REMARKS
GRAND JUNCTION CLEAR     32  22  66 CALM      30.38R
MONTROSE       CLEAR     37  22  54 CALM      30.40R
EAGLE          CLEAR     36  12  38 S5        30.39R
RIFLE          CLEAR     37  15  40 S3        30.37R
DELTA          CLEAR     41  20  44 W7        30.39R
NUCLA          CLEAR     39  16  38 NE5       30.41R
$$

COZ017>023-064>068-060300-
...SOUTHWEST COLORADO...

CITY           SKY/WX    TMP DP  RH WIND       PRES   REMARKS
DURANGO        CLEAR     32  16  51 CALM      30.34R
CORTEZ         CLEAR     35  22  58 NE5       30.37R WCI  31
PAGOSA SPRINGS CLEAR     23  10  56 CALM      30.36R
TELLURIDE      PTCLDY    28   0  29 CALM      30.40R
WOLF CREEK PAS PTCLDY    12   5  73 SW14      30.38R WCI  -3
$$

COZ009-010-012-014-032>034-037-058>063-060300-
...CENTRAL COLORADO...

CITY           SKY/WX    TMP DP  RH WIND       PRES   REMARKS
ASPEN          PTCLDY    23  11  60 SW5       30.35R WCI  17
BUENA VISTA    PTCLDY    31   8  37 NW14G22   30.29R WCI  21
COPPER MTN     PTCLDY    16   3  57 W10G17    30.33R WCI   3
BERTHOUD PASS  NOT AVBL
COTTONWOOD PAS PTCLDY    30   0  27 NW8G23    30.28S WCI  23
GUNNISON       CLEAR     21   7  53 N6        30.40R WCI  14
KREMMLING      PTCLDY    21  14  73 CALM      30.37R
LEADVILLE      PTCLDY    18   3  52 NE9       30.32R WCI   7
SALIDA         PTCLDY    36   8  30 W12G18    30.37R
SUNLIGHT       PTCLDY    18  14  86 SW3         N/A
WILKERSON PASS PTCLDY    19  -2  38 CALM      30.31R
$$

COZ069>075-060300-
...SAN LUIS VALLEY/SANGRE DE CRISTO MOUNTAINS...

CITY           SKY/WX    TMP DP  RH WIND       PRES   REMARKS
ALAMOSA        PTCLDY    27  15  61 W7        30.33R WCI  19
LA VETA PASS   PTCLDY    21   1  42 S13G26    30.27R WCI   9
SAGUACHE       PTCLDY    28  14  54 E7        30.34R WCI  21
$$

COZ035-036-038>040-060300-
...NORTHERN COLORADO FRONT RANGE...

CITY           SKY/WX    TMP DP  RH WIND       PRES   REMARKS
DENVER INTL AP MOCLDY    28  17  63 W6        30.24R WCI  22
DMNS CITY PARK   N/A     28  15  58 N2        30.25S
AURORA         PTCLDY    27  20  76 S3        30.25R
FRONT RANGE AP NOT AVBL
ERIE MUNI ARPT PTCLDY    21  14  73 CALM      30.26R
BOULDER MUN AP PTCLDY    28  14  54 S6        30.24S WCI  22
CENTENNIAL     PTCLDY    30  20  66 CALM      30.24R
BROOMFIELD     MOCLDY    28  10  47 NW5       30.24R WCI  23
FORT COLLINS   PTCLDY    28  18  64 CALM      30.26S
LONGMONT       PTCLDY    26  15  64 SW3       30.27S
$$

COZ041-046-047-076>085-087-088-060300-
...PIKES PEAK/PALMER DIVIDE AND SOUTHERN FOOTHILLS...

CITY           SKY/WX    TMP DP  RH WIND       PRES   REMARKS
COLO. SPRINGS  PTCLDY    28  16  60 N7        30.26R WCI  21
A. F. ACADEMY  CLEAR     29  15  56 CALM      30.24R
ELLICOTT       NOT AVBL
FALCON         CLEAR     23  15  69 W3        30.25R
FORT CARSON    CLEAR     28  16  60 W5        30.24R WCI  23
LIMON          CLEAR     14  11  87 N7        30.27R WCI   4
MONUMENT HILL  CLEAR     23  12  63 W7        30.23R WCI  15
TRINIDAD       CLEAR     36  25  64 W9        30.23R
$$

COZ042>045-048>051-090-091-060300-
...NORTHEAST COLORADO...

CITY           SKY/WX    TMP DP  RH WIND       PRES   REMARKS
GREELEY ARPT   PTCLDY    30  18  59 W6        30.24R WCI  24
AKRON          CLEAR     31  15  52 N6        30.25R WCI  25
BURLINGTON     PTCLDY    30  18  60 W7        30.27R WCI  23
WRAY           PTCLDY    32  18  56 SW7       30.25S WCI  25
STERLING       CLEAR     30  18  59 CALM      30.25R
HOLYOKE        PTCLDY    34  18  51 W8        30.24S WCI  27
FORT MORGAN    CLEAR     37   5  25 E3        30.25R
$$

COZ086-089-092>099-060300-
...SOUTHEAST COLORADO...

CITY           SKY/WX    TMP DP  RH WIND       PRES   REMARKS
PUEBLO         CLEAR     32  25  75 N7        30.25R WCI  26
LA JUNTA       CLEAR     32  22  66 N7        30.23R WCI  26
LAMAR          CLEAR     35  20  54 SE10      30.24R WCI  27
SPRINGFIELD      N/A     30  21  69 S10       30.26R WCI  21
$$


USA.gov is the U.S. government's official web portal to all federal, state and local government web resources and services.